User: anonymous   Login
Location: Turtle Rock Observatory
(36.6913°N, 81.9708°W)
Time: 07:50:19
(UTC-04:00)
Language:

Cosmos 1125 Rocket - Orbit

View from above orbital plane
View from above orbital plane
View from above satellite
View from above satellite

Ground track
Ground track

The orbit data is extracted from the following two-line orbital elements,

1 11511U 79078B   16271.93952413  .00000022  00000-0  16464-4 0  9992
2 11511  74.0354  77.2961 0015301  21.8965 338.2839 14.36732699940950
Epoch (UTC): 27 September 2016 22:32:54
Eccentricity: 0.0015301
inclination: 74.0354°
perigee height: 758 km
apogee height: 780 km
right ascension of ascending node: 77.2961°
argument of perigee: 21.8965°
revolutions per day: 14.36732699
mean anomaly at epoch: 338.2839°
orbit number at epoch: 94095

The dashed part of the orbit path shows where the satellite is in the earth's shadow,  

DLR